Terminal Aerodrome Forecast
Issued by NWS

Home | Current Version | Previous Version | Text Only | Print | Product List | Glossary On
Versions: 1 2 3 4 5 6 7 8 9 10 11 12 13 14 15 16 17 18 19 20 21 22 23 24 25 26 27 28 29 30 31 32 33 34 35 36 37 38 39
000
FTUS41 KBTV 201959 AAA
TAFPBG
TAF AMD
KPBG 201959Z 2020/2118 20003KT P6SM SKC
     FM202000 05006KT P6SM SCT040
     FM210100 00000KT P6SM FEW130
     FM211400 00000KT P6SM BKN020=

USA.gov is the U.S. government's official web portal to all federal, state and local government web resources and services.